Time,TemperatureF,DewpointF,PressureIn,WindDirection,WindDirectionDegrees,WindSpeedMPH,WindSpeedGustMPH,Humidity,HourlyPrecipIn,Conditions,Clouds,dailyrainin,SoftwareType,DateUTC
2013-04-16 00:00:00,33.8,29.2,30.02,WNW,301,5.0,8.0,83,0.00,,RA,0.00,VWS V14.01,2013-04-16 05:00:00,
2013-04-16 00:05:00,33.8,28.9,30.02,NW,312,4.0,10.0,82,0.00,,RA,0.00,VWS V14.01,2013-04-16 05:05:00,
2013-04-16 00:10:00,33.8,28.9,30.02,West,267,4.0,10.0,82,0.00,,RA,0.00,VWS V14.01,2013-04-16 05:10:00,
2013-04-16 00:15:00,33.8,29.2,30.03,NW,309,4.0,10.0,83,0.00,,RA,0.00,VWS V14.01,2013-04-16 05:15:00,
2013-04-16 00:20:00,33.8,29.2,30.03,WNW,295,6.0,10.0,83,0.00,,RA,0.00,VWS V14.01,2013-04-16 05:20:00,
2013-04-16 00:25:00,33.7,29.1,30.04,WNW,289,2.0,10.0,83,0.00,,RA,0.00,VWS V14.01,2013-04-16 05:25:00,
2013-04-16 00:30:00,33.7,28.8,30.03,West,272,4.0,11.0,82,0.00,,RA,0.00,VWS V14.01,2013-04-16 05:30:00,
2013-04-16 00:35:00,33.6,28.7,30.03,North,4,2.0,10.0,82,0.00,,RA,0.00,VWS V14.01,2013-04-16 05:35:00,
2013-04-16 00:40:00,33.6,28.7,30.03,WNW,298,4.0,10.0,82,0.00,,RA,0.00,VWS V14.01,2013-04-16 05:40:00,
2013-04-16 00:45:00,33.7,28.8,30.04,WNW,293,5.0,10.0,82,0.00,,RA,0.00,VWS V14.01,2013-04-16 05:45:00,
2013-04-16 00:50:00,33.8,28.9,30.04,WNW,286,3.0,10.0,82,0.00,,RA,0.00,VWS V14.01,2013-04-16 05:50:00,
2013-04-16 00:55:00,33.8,28.9,30.04,West,281,1.0,10.0,82,0.00,,RA,0.00,VWS V14.01,2013-04-16 05:55:00,
2013-04-16 01:00:00,33.7,28.8,30.04,WNW,287,3.0,10.0,82,0.00,,RA,0.00,VWS V14.01,2013-04-16 06:00:00,
2013-04-16 01:05:00,33.7,29.1,30.04,West,281,4.0,9.0,83,0.00,,RA,0.00,VWS V14.01,2013-04-16 06:05:00,
2013-04-16 01:10:00,33.8,29.2,30.04,NW,313,4.0,11.0,83,0.00,,RA,0.00,VWS V14.01,2013-04-16 06:10:00,
2013-04-16 01:15:00,33.8,29.2,30.03,WNW,285,4.0,11.0,83,0.00,,RA,0.00,VWS V14.01,2013-04-16 06:15:00,
2013-04-16 01:20:00,33.8,29.2,30.03,WNW,290,2.0,11.0,83,0.00,,RA,0.00,VWS V14.01,2013-04-16 06:20:00,
2013-04-16 01:25:00,33.9,29.6,30.03,NW,325,4.0,11.0,84,0.00,,RA,0.00,VWS V14.01,2013-04-16 06:25:00,
2013-04-16 01:30:00,33.9,29.6,30.04,NW,319,4.0,11.0,84,0.00,,RA,0.00,VWS V14.01,2013-04-16 06:30:00,
2013-04-16 01:35:00,33.9,29.6,30.04,WNW,301,4.0,7.0,84,0.00,,RA,0.00,VWS V14.01,2013-04-16 06:35:00,
2013-04-16 01:40:00,33.9,29.6,30.04,West,266,7.0,9.0,84,0.00,,RA,0.00,VWS V14.01,2013-04-16 06:40:00,
2013-04-16 01:45:00,33.8,29.5,30.04,NW,305,4.0,9.0,84,0.00,,RA,0.00,VWS V14.01,2013-04-16 06:45:00,
2013-04-16 01:50:00,33.7,29.7,30.04,WNW,295,3.0,9.0,85,0.00,,RA,0.00,VWS V14.01,2013-04-16 06:50:00,
2013-04-16 01:55:00,33.6,29.6,30.03,NW,325,2.0,9.0,85,0.00,,RA,0.00,VWS V14.01,2013-04-16 06:55:00,
2013-04-16 02:00:00,33.5,29.5,30.03,North,359,2.0,9.0,85,0.00,,RA,0.00,VWS V14.01,2013-04-16 07:00:00,
2013-04-16 02:05:00,33.5,29.8,30.03,WNW,302,3.0,6.0,86,0.00,,RA,0.00,VWS V14.01,2013-04-16 07:05:00,
2013-04-16 02:10:00,33.4,29.7,30.03,WNW,295,2.0,6.0,86,0.00,,RA,0.00,VWS V14.01,2013-04-16 07:10:00,
2013-04-16 02:15:00,33.3,29.6,30.03,WNW,283,1.0,6.0,86,0.00,,RA,0.00,VWS V14.01,2013-04-16 07:15:00,
2013-04-16 02:20:00,33.2,29.5,30.03,NW,304,2.0,6.0,86,0.00,,RA,0.00,VWS V14.01,2013-04-16 07:20:00,
2013-04-16 02:26:00,33.2,29.5,30.03,WNW,301,2.0,6.0,86,0.00,,RA,0.00,VWS V14.01,2013-04-16 07:26:00,
2013-04-16 02:30:00,33.2,29.5,30.03,NW,310,1.0,6.0,86,0.00,,RA,0.00,VWS V14.01,2013-04-16 07:30:00,
2013-04-16 02:31:00,33.2,29.5,30.03,NW,308,1.0,1.0,86,0.00,,RA,0.00,VWS V14.01,2013-04-16 07:31:00,
2013-04-16 02:36:00,33.2,29.5,30.04,WNW,298,3.0,9.0,86,0.00,,RA,0.00,VWS V14.01,2013-04-16 07:36:00,
2013-04-16 02:41:00,33.3,29.6,30.04,WNW,294,5.0,9.0,86,0.00,,RA,0.00,VWS V14.01,2013-04-16 07:41:00,
2013-04-16 02:46:00,33.3,29.6,30.05,NW,308,5.0,9.0,86,0.00,,RA,0.00,VWS V14.01,2013-04-16 07:46:00,
2013-04-16 02:51:00,33.3,29.9,30.05,WNW,286,3.0,9.0,87,0.00,,RA,0.00,VWS V14.01,2013-04-16 07:51:00,
2013-04-16 02:56:00,33.2,29.8,30.05,NNW,327,1.0,9.0,87,0.00,,RA,0.00,VWS V14.01,2013-04-16 07:56:00,
2013-04-16 03:00:00,33.2,29.8,30.06,NW,321,2.0,9.0,87,0.00,,RA,0.00,VWS V14.01,2013-04-16 08:00:00,
2013-04-16 03:01:00,33.2,29.8,30.06,WNW,292,3.0,3.0,87,0.00,,RA,0.00,VWS V14.01,2013-04-16 08:01:00,
2013-04-16 03:06:00,33.3,29.9,30.06,NW,313,1.0,9.0,87,0.00,,RA,0.00,VWS V14.01,2013-04-16 08:06:00,
2013-04-16 03:11:00,33.3,29.9,30.06,West,262,5.0,9.0,87,0.00,,RA,0.00,VWS V14.01,2013-04-16 08:11:00,
2013-04-16 03:16:00,33.3,29.9,30.06,WNW,301,2.0,9.0,87,0.00,,RA,0.00,VWS V14.01,2013-04-16 08:16:00,
2013-04-16 03:21:00,33.2,29.8,30.06,WNW,298,2.0,9.0,87,0.00,,RA,0.00,VWS V14.01,2013-04-16 08:21:00,
2013-04-16 03:26:00,33.1,29.7,30.05,NW,322,1.0,9.0,87,0.00,,RA,0.00,VWS V14.01,2013-04-16 08:26:00,
2013-04-16 03:30:00,33.2,29.8,30.06,NNW,329,1.0,9.0,87,0.00,,RA,0.00,VWS V14.01,2013-04-16 08:30:00,
2013-04-16 03:31:00,33.2,29.8,30.06,NNW,329,1.0,1.0,87,0.00,,RA,0.00,VWS V14.01,2013-04-16 08:31:00,
2013-04-16 03:35:00,33.1,29.7,30.05,NW,309,3.0,5.0,87,0.00,,RA,0.00,VWS V14.01,2013-04-16 08:35:00,
2013-04-16 03:40:00,33.2,30.0,30.06,NW,309,3.0,5.0,88,0.00,,RA,0.00,VWS V14.01,2013-04-16 08:40:00,
2013-04-16 03:45:00,33.2,30.0,30.06,NW,316,2.0,6.0,88,0.00,,RA,0.00,VWS V14.01,2013-04-16 08:45:00,
2013-04-16 03:51:00,33.2,29.8,30.07,NW,314,2.0,6.0,87,0.00,,RA,0.00,VWS V14.01,2013-04-16 08:51:00,
2013-04-16 03:56:00,33.3,29.9,30.07,NW,305,1.0,6.0,87,0.00,,RA,0.00,VWS V14.01,2013-04-16 08:56:00,
2013-04-16 04:00:00,33.3,30.1,30.08,WNW,295,5.0,6.0,88,0.00,,RA,0.00,VWS V14.01,2013-04-16 09:00:00,
2013-04-16 04:01:00,33.3,30.1,30.08,WNW,295,5.0,6.0,88,0.00,,RA,0.00,VWS V14.01,2013-04-16 09:01:00,
2013-04-16 04:05:00,33.3,29.9,30.08,West,271,5.0,6.0,87,0.00,,RA,0.00,VWS V14.01,2013-04-16 09:05:00,
2013-04-16 04:10:00,33.3,29.9,30.08,NW,314,1.0,6.0,87,0.00,,RA,0.00,VWS V14.01,2013-04-16 09:10:00,
2013-04-16 04:15:00,33.3,29.9,30.08,WNW,302,5.0,7.0,87,0.00,,RA,0.00,VWS V14.01,2013-04-16 09:15:00,
2013-04-16 04:20:00,33.3,30.1,30.09,WNW,292,2.0,7.0,88,0.00,,RA,0.00,VWS V14.01,2013-04-16 09:20:00,
2013-04-16 04:25:00,33.3,30.1,30.08,NNW,331,2.0,7.0,88,0.00,,RA,0.00,VWS V14.01,2013-04-16 09:25:00,
2013-04-16 04:30:00,33.2,30.0,30.08,NW,316,1.0,7.0,88,0.00,,RA,0.00,VWS V14.01,2013-04-16 09:30:00,
2013-04-16 04:35:00,33.1,29.7,30.07,NW,325,1.0,6.0,87,0.00,,RA,0.00,VWS V14.01,2013-04-16 09:35:00,
2013-04-16 04:40:00,33.1,29.4,30.06,NNW,327,4.0,6.0,86,0.00,,RA,0.00,VWS V14.01,2013-04-16 09:40:00,
2013-04-16 04:45:00,33.1,29.1,30.07,North,354,4.0,8.0,85,0.00,,RA,0.00,VWS V14.01,2013-04-16 09:45:00,
2013-04-16 04:50:00,33.1,28.8,30.06,NNE,15,2.0,8.0,84,0.00,,RA,0.00,VWS V14.01,2013-04-16 09:50:00,
2013-04-16 04:55:00,33.0,28.4,30.07,NNE,20,3.0,8.0,83,0.00,,RA,0.00,VWS V14.01,2013-04-16 09:55:00,
2013-04-16 05:00:00,32.9,28.3,30.08,NW,321,3.0,8.0,83,0.00,,RA,0.00,VWS V14.01,2013-04-16 10:00:00,
2013-04-16 05:05:00,32.8,28.2,30.08,NNW,337,6.0,6.0,83,0.00,,RA,0.00,VWS V14.01,2013-04-16 10:05:00,
2013-04-16 05:10:00,32.7,28.4,30.09,North,350,2.0,6.0,84,0.00,,RA,0.00,VWS V14.01,2013-04-16 10:10:00,
2013-04-16 05:15:00,32.7,28.7,30.09,NW,311,2.0,6.0,85,0.00,,RA,0.00,VWS V14.01,2013-04-16 10:15:00,
2013-04-16 05:20:00,32.6,28.6,30.10,NNE,21,1.0,6.0,85,0.00,,RA,0.00,VWS V14.01,2013-04-16 10:20:00,
2013-04-16 05:25:00,32.6,28.3,30.10,NW,321,3.0,6.0,84,0.00,,RA,0.00,VWS V14.01,2013-04-16 10:25:00,
2013-04-16 05:30:00,32.6,28.3,30.11,NNW,333,2.0,8.0,84,0.00,,RA,0.00,VWS V14.01,2013-04-16 10:30:00,
2013-04-16 05:35:00,32.6,28.3,30.11,NNW,344,2.0,5.0,84,0.00,,RA,0.00,VWS V14.01,2013-04-16 10:35:00,
2013-04-16 05:40:00,32.5,28.5,30.12,NW,322,1.0,5.0,85,0.00,,RA,0.00,VWS V14.01,2013-04-16 10:40:00,
2013-04-16 05:45:00,32.4,28.7,30.12,NW,308,1.0,6.0,86,0.00,,RA,0.00,VWS V14.01,2013-04-16 10:45:00,
2013-04-16 05:50:00,32.4,29.0,30.12,NW,304,4.0,6.0,87,0.00,,RA,0.00,VWS V14.01,2013-04-16 10:50:00,
2013-04-16 05:55:00,32.3,28.9,30.13,NW,304,4.0,6.0,87,0.00,,RA,0.00,VWS V14.01,2013-04-16 10:55:00,
2013-04-16 06:00:00,32.2,28.8,30.13,WNW,295,2.0,6.0,87,0.00,,RA,0.00,VWS V14.01,2013-04-16 11:00:00,
2013-04-16 06:05:00,32.1,28.4,30.13,NW,311,0.0,6.0,86,0.00,,RA,0.00,VWS V14.01,2013-04-16 11:05:00,
2013-04-16 06:10:00,32.1,28.4,30.13,WNW,296,2.0,6.0,86,0.00,,RA,0.00,VWS V14.01,2013-04-16 11:10:00,
2013-04-16 06:15:00,32.0,28.0,30.13,NE,56,5.0,6.0,85,0.00,,RA,0.00,VWS V14.01,2013-04-16 11:15:00,
2013-04-16 06:20:00,31.8,27.5,30.13,NW,319,1.0,6.0,84,0.00,,RA,0.00,VWS V14.01,2013-04-16 11:20:00,
2013-04-16 06:25:00,31.8,27.8,30.14,NW,321,2.0,6.0,85,0.00,,RA,0.00,VWS V14.01,2013-04-16 11:25:00,
2013-04-16 06:30:00,31.8,27.8,30.14,NW,325,1.0,6.0,85,0.00,,RA,0.00,VWS V14.01,2013-04-16 11:30:00,
2013-04-16 06:35:00,31.7,27.4,30.14,NNW,333,2.0,3.0,84,0.00,,RA,0.00,VWS V14.01,2013-04-16 11:35:00,
2013-04-16 06:40:00,31.7,27.4,30.15,NW,304,0.0,3.0,84,0.00,,RA,0.00,VWS V14.01,2013-04-16 11:40:00,
2013-04-16 06:45:00,31.7,27.4,30.15,WNW,285,2.0,4.0,84,0.00,,RA,0.00,VWS V14.01,2013-04-16 11:45:00,
2013-04-16 06:50:00,31.8,27.5,30.15,NW,315,2.0,6.0,84,0.00,,RA,0.00,VWS V14.01,2013-04-16 11:50:00,
2013-04-16 06:55:00,31.8,27.5,30.16,WNW,301,2.0,6.0,84,0.00,,RA,0.00,VWS V14.01,2013-04-16 11:55:00,
2013-04-16 07:00:00,31.9,27.6,30.16,NW,324,1.0,6.0,84,0.00,,RA,0.00,VWS V14.01,2013-04-16 12:00:00,
2013-04-16 07:05:00,31.9,27.3,30.16,NNW,328,2.0,6.0,83,0.00,,RA,0.00,VWS V14.01,2013-04-16 12:05:00,
2013-04-16 07:10:00,32.0,27.4,30.16,NW,314,2.0,6.0,83,0.00,,RA,0.00,VWS V14.01,2013-04-16 12:10:00,
2013-04-16 07:15:00,32.0,27.4,30.16,NW,307,2.0,6.0,83,0.00,,RA,0.00,VWS V14.01,2013-04-16 12:15:00,
2013-04-16 07:20:00,32.1,27.5,30.16,NW,311,3.0,6.0,83,0.00,,RA,0.00,VWS V14.01,2013-04-16 12:20:00,
2013-04-16 07:25:00,32.2,27.9,30.16,NNW,340,2.0,6.0,84,0.00,,RA,0.00,VWS V14.01,2013-04-16 12:25:00,
2013-04-16 07:30:00,32.4,28.1,30.16,NW,316,2.0,6.0,84,0.00,,RA,0.00,VWS V14.01,2013-04-16 12:30:00,
2013-04-16 07:35:00,32.6,28.0,30.16,NNW,327,1.0,7.0,83,0.00,,RA,0.00,VWS V14.01,2013-04-16 12:35:00,
2013-04-16 07:40:00,32.8,27.9,30.16,NNW,329,2.0,7.0,82,0.00,,RA,0.00,VWS V14.01,2013-04-16 12:40:00,
2013-04-16 07:45:00,32.9,28.0,30.17,NW,309,3.0,7.0,82,0.00,,RA,0.00,VWS V14.01,2013-04-16 12:45:00,
2013-04-16 07:50:00,33.1,28.2,30.17,NNE,21,1.0,7.0,82,0.00,,RA,0.00,VWS V14.01,2013-04-16 12:50:00,
2013-04-16 07:55:00,33.2,28.0,30.17,NW,319,3.0,7.0,81,0.00,,RA,0.00,VWS V14.01,2013-04-16 12:55:00,
2013-04-16 08:00:00,33.4,28.2,30.17,NW,307,1.0,8.0,81,0.00,,RA,0.00,VWS V14.01,2013-04-16 13:00:00,
2013-04-16 08:05:00,33.6,28.1,30.17,NW,316,5.0,7.0,80,0.00,,RA,0.00,VWS V14.01,2013-04-16 13:05:00,
2013-04-16 08:10:00,33.8,28.3,30.17,NW,316,4.0,7.0,80,0.00,,RA,0.00,VWS V14.01,2013-04-16 13:10:00,
2013-04-16 08:15:00,34.0,28.5,30.17,NW,319,3.0,7.0,80,0.00,,RA,0.00,VWS V14.01,2013-04-16 13:15:00,
2013-04-16 08:20:00,34.1,28.0,30.18,WNW,290,5.0,7.0,78,0.00,,RA,0.00,VWS V14.01,2013-04-16 13:20:00,
2013-04-16 08:25:00,34.2,28.1,30.18,NNW,327,3.0,11.0,78,0.00,,RA,0.00,VWS V14.01,2013-04-16 13:25:00,
2013-04-16 08:30:00,34.3,27.5,30.18,NNW,333,6.0,19.0,76,0.00,,RA,0.00,VWS V14.01,2013-04-16 13:30:00,
2013-04-16 08:35:00,34.4,28.0,30.18,NNE,15,6.0,11.0,77,0.00,,RA,0.00,VWS V14.01,2013-04-16 13:35:00,
2013-04-16 08:40:00,34.5,28.0,30.18,NNW,347,4.0,16.0,77,0.00,,RA,0.00,VWS V14.01,2013-04-16 13:40:00,
2013-04-16 08:45:00,34.6,28.1,30.19,North,354,9.0,16.0,77,0.00,,RA,0.00,VWS V14.01,2013-04-16 13:45:00,
2013-04-16 08:50:00,34.5,28.0,30.19,North,352,7.0,16.0,77,0.00,,RA,0.00,VWS V14.01,2013-04-16 13:50:00,
2013-04-16 08:55:00,34.6,28.1,30.18,NNE,15,11.0,16.0,77,0.00,,RA,0.00,VWS V14.01,2013-04-16 13:55:00,
2013-04-16 09:00:00,34.7,28.2,30.18,NNE,19,4.0,16.0,77,0.00,,RA,0.00,VWS V14.01,2013-04-16 14:00:00,
2013-04-16 09:05:00,34.8,28.3,30.18,NW,325,6.0,14.0,77,0.00,,RA,0.00,VWS V14.01,2013-04-16 14:05:00,
2013-04-16 09:10:00,34.9,28.1,30.18,NNW,343,7.0,15.0,76,0.00,,RA,0.00,VWS V14.01,2013-04-16 14:10:00,
2013-04-16 09:15:00,35.1,28.3,30.18,North,8,6.0,15.0,76,0.00,,RA,0.00,VWS V14.01,2013-04-16 14:15:00,
2013-04-16 09:20:00,35.4,28.6,30.18,NNE,25,5.0,15.0,76,0.00,,RA,0.00,VWS V14.01,2013-04-16 14:20:00,
2013-04-16 09:25:00,35.7,28.9,30.19,NNE,21,5.0,15.0,76,0.00,,RA,0.00,VWS V14.01,2013-04-16 14:25:00,
2013-04-16 09:30:00,35.7,28.6,30.19,NNW,337,8.0,15.0,75,0.00,,RA,0.00,VWS V14.01,2013-04-16 14:30:00,
2013-04-16 09:35:00,35.7,28.6,30.19,NNW,336,3.0,12.0,75,0.00,,RA,0.00,VWS V14.01,2013-04-16 14:35:00,
2013-04-16 09:40:00,36.0,29.2,30.19,North,351,6.0,13.0,76,0.00,,RA,0.00,VWS V14.01,2013-04-16 14:40:00,
2013-04-16 09:45:00,36.1,28.6,30.19,NNE,17,7.0,14.0,74,0.00,,RA,0.00,VWS V14.01,2013-04-16 14:45:00,
2013-04-16 09:50:00,36.4,28.9,30.19,NNE,14,8.0,14.0,74,0.00,,RA,0.00,VWS V14.01,2013-04-16 14:50:00,
2013-04-16 09:55:00,36.4,28.6,30.20,North,8,9.0,14.0,73,0.00,,RA,0.00,VWS V14.01,2013-04-16 14:55:00,
2013-04-16 10:00:00,36.8,29.3,30.20,North,11,6.0,14.0,74,0.00,,RA,0.00,VWS V14.01,2013-04-16 15:00:00,
2013-04-16 10:05:00,37.2,30.0,30.21,North,9,6.0,10.0,75,0.00,,RA,0.00,VWS V14.01,2013-04-16 15:05:00,
2013-04-16 10:10:00,37.2,29.4,30.22,North,356,4.0,13.0,73,0.00,,RA,0.00,VWS V14.01,2013-04-16 15:10:00,
2013-04-16 10:15:00,37.3,29.1,30.22,NNW,347,6.0,13.0,72,0.00,,RA,0.00,VWS V14.01,2013-04-16 15:15:00,
2013-04-16 10:20:00,37.7,29.8,30.22,North,354,5.0,13.0,73,0.00,,RA,0.00,VWS V14.01,2013-04-16 15:20:00,
2013-04-16 10:25:00,38.0,30.1,30.23,NNW,347,6.0,13.0,73,0.00,,RA,0.00,VWS V14.01,2013-04-16 15:25:00,
2013-04-16 10:30:00,38.2,29.6,30.23,NW,323,2.0,13.0,71,0.00,,RA,0.00,VWS V14.01,2013-04-16 15:30:00,
2013-04-16 10:35:00,38.8,30.6,30.23,NNE,23,4.0,6.0,72,0.00,,RA,0.00,VWS V14.01,2013-04-16 15:35:00,
2013-04-16 10:40:00,38.9,30.3,30.23,North,4,9.0,9.0,71,0.00,,RA,0.00,VWS V14.01,2013-04-16 15:40:00,
2013-04-16 10:45:00,38.9,30.7,30.23,NNE,26,7.0,11.0,72,0.00,,RA,0.00,VWS V14.01,2013-04-16 15:45:00,
2013-04-16 10:50:00,38.7,30.1,30.23,NNW,341,5.0,13.0,71,0.00,,RA,0.00,VWS V14.01,2013-04-16 15:50:00,
2013-04-16 10:55:00,38.8,29.9,30.23,NNW,338,3.0,13.0,70,0.00,,RA,0.00,VWS V14.01,2013-04-16 15:55:00,
2013-04-16 11:00:00,39.0,30.4,30.23,NNE,21,7.0,13.0,71,0.00,,RA,0.00,VWS V14.01,2013-04-16 16:00:00,
2013-04-16 11:05:00,39.4,31.1,30.23,NNW,347,5.0,11.0,72,0.00,,RA,0.00,VWS V14.01,2013-04-16 16:05:00,
2013-04-16 11:10:00,39.7,30.4,30.24,NE,36,3.0,11.0,69,0.00,,RA,0.00,VWS V14.01,2013-04-16 16:10:00,
2013-04-16 11:15:00,39.8,30.8,30.24,NNE,15,4.0,11.0,70,0.00,,RA,0.00,VWS V14.01,2013-04-16 16:15:00,
2013-04-16 11:20:00,39.9,31.3,30.24,North,9,5.0,11.0,71,0.00,,RA,0.00,VWS V14.01,2013-04-16 16:20:00,
2013-04-16 11:25:00,40.1,30.8,30.24,NNE,21,2.0,11.0,69,0.00,,RA,0.00,VWS V14.01,2013-04-16 16:25:00,
2013-04-16 11:30:00,40.3,31.0,30.24,NNW,340,5.0,11.0,69,0.00,,RA,0.00,VWS V14.01,2013-04-16 16:30:00,
2013-04-16 11:35:00,40.7,31.3,30.24,North,356,2.0,8.0,69,0.00,,RA,0.00,VWS V14.01,2013-04-16 16:35:00,
2013-04-16 11:40:00,40.7,31.7,30.24,NNW,345,2.0,8.0,70,0.00,,RA,0.00,VWS V14.01,2013-04-16 16:40:00,
2013-04-16 11:45:00,41.3,32.3,30.24,NNW,339,4.0,10.0,70,0.00,,RA,0.00,VWS V14.01,2013-04-16 16:45:00,
2013-04-16 11:50:00,41.5,32.1,30.24,North,9,4.0,11.0,69,0.00,,RA,0.00,VWS V14.01,2013-04-16 16:50:00,
2013-04-16 11:55:00,41.7,31.6,30.25,NNE,30,5.0,11.0,67,0.00,,RA,0.00,VWS V14.01,2013-04-16 16:55:00,
2013-04-16 12:00:00,41.6,31.5,30.25,North,6,7.0,11.0,67,0.00,,RA,0.00,VWS V14.01,2013-04-16 17:00:00,
2013-04-16 12:05:00,41.8,31.3,30.25,NNE,23,7.0,10.0,66,0.00,,RA,0.00,VWS V14.01,2013-04-16 17:05:00,
2013-04-16 12:10:00,41.9,31.4,30.25,NNE,12,3.0,10.0,66,0.00,,RA,0.00,VWS V14.01,2013-04-16 17:10:00,
2013-04-16 12:15:00,42.2,31.7,30.24,NNE,18,5.0,10.0,66,0.00,,RA,0.00,VWS V14.01,2013-04-16 17:15:00,
2013-04-16 12:20:00,42.3,31.8,30.24,ENE,62,3.0,10.0,66,0.00,,RA,0.00,VWS V14.01,2013-04-16 17:20:00,
2013-04-16 12:25:00,42.7,31.8,30.24,NNW,336,5.0,10.0,65,0.00,,RA,0.00,VWS V14.01,2013-04-16 17:25:00,
2013-04-16 12:30:00,42.5,31.6,30.24,NW,316,4.0,11.0,65,0.00,,RA,0.00,VWS V14.01,2013-04-16 17:30:00,
2013-04-16 12:35:00,42.5,32.0,30.24,NNE,16,8.0,11.0,66,0.00,,RA,0.00,VWS V14.01,2013-04-16 17:35:00,
2013-04-16 12:40:00,42.5,32.0,30.24,NW,316,5.0,11.0,66,0.00,,RA,0.00,VWS V14.01,2013-04-16 17:40:00,
2013-04-16 12:45:00,43.1,31.8,30.24,NNE,15,6.0,15.0,64,0.00,,RA,0.00,VWS V14.01,2013-04-16 17:45:00,
2013-04-16 12:50:00,43.6,32.6,30.23,NNW,339,3.0,15.0,65,0.00,,RA,0.00,VWS V14.01,2013-04-16 17:50:00,
2013-04-16 12:55:00,43.6,33.4,30.24,North,7,3.0,15.0,67,0.00,,RA,0.00,VWS V14.01,2013-04-16 17:55:00,
2013-04-16 13:00:00,43.9,32.1,30.24,NNW,345,8.0,15.0,63,0.00,,RA,0.00,VWS V14.01,2013-04-16 18:00:00,
2013-04-16 13:05:00,43.7,32.7,30.24,North,5,2.0,10.0,65,0.00,,RA,0.00,VWS V14.01,2013-04-16 18:05:00,
2013-04-16 13:10:00,43.9,32.5,30.24,NNE,17,10.0,11.0,64,0.00,,RA,0.00,VWS V14.01,2013-04-16 18:10:00,
2013-04-16 13:15:00,44.0,32.6,30.24,NNW,339,3.0,11.0,64,0.00,,RA,0.00,VWS V14.01,2013-04-16 18:15:00,
2013-04-16 13:20:00,44.2,32.4,30.24,NNE,13,7.0,11.0,63,0.00,,RA,0.00,VWS V14.01,2013-04-16 18:20:00,
2013-04-16 13:25:00,44.2,32.8,30.24,NNE,17,6.0,11.0,64,0.00,,RA,0.00,VWS V14.01,2013-04-16 18:25:00,
2013-04-16 13:30:00,44.1,31.5,30.24,WNW,288,3.0,11.0,61,0.00,,RA,0.00,VWS V14.01,2013-04-16 18:30:00,
2013-04-16 13:35:00,44.4,32.6,30.24,NW,319,2.0,9.0,63,0.00,,RA,0.00,VWS V14.01,2013-04-16 18:35:00,
2013-04-16 13:40:00,44.9,33.5,30.24,NNE,20,1.0,9.0,64,0.00,,RA,0.00,VWS V14.01,2013-04-16 18:40:00,
2013-04-16 13:45:00,45.6,32.9,30.24,NNE,30,6.0,10.0,61,0.00,,RA,0.00,VWS V14.01,2013-04-16 18:45:00,
2013-04-16 13:50:00,45.1,32.9,30.23,North,350,5.0,10.0,62,0.00,,RA,0.00,VWS V14.01,2013-04-16 18:50:00,
2013-04-16 13:55:00,44.9,32.3,30.23,NNE,13,8.0,10.0,61,0.00,,RA,0.00,VWS V14.01,2013-04-16 18:55:00,
2013-04-16 14:00:00,45.3,32.7,30.23,NNE,12,3.0,10.0,61,0.00,,RA,0.00,VWS V14.01,2013-04-16 19:00:00,
2013-04-16 14:05:00,46.0,33.3,30.23,North,4,2.0,8.0,61,0.00,,RA,0.00,VWS V14.01,2013-04-16 19:05:00,
2013-04-16 14:10:00,46.2,33.1,30.23,North,353,5.0,8.0,60,0.00,,RA,0.00,VWS V14.01,2013-04-16 19:10:00,
2013-04-16 14:15:00,45.6,32.9,30.23,NNE,23,3.0,9.0,61,0.00,,RA,0.00,VWS V14.01,2013-04-16 19:15:00,
2013-04-16 14:20:00,46.0,32.5,30.23,North,351,7.0,10.0,59,0.00,,RA,0.00,VWS V14.01,2013-04-16 19:20:00,
2013-04-16 14:25:00,46.0,32.5,30.23,NNW,345,4.0,10.0,59,0.00,,RA,0.00,VWS V14.01,2013-04-16 19:25:00,
2013-04-16 14:30:00,45.8,32.7,30.22,NNE,13,5.0,10.0,60,0.00,,RA,0.00,VWS V14.01,2013-04-16 19:30:00,
2013-04-16 14:35:00,46.1,33.4,30.23,North,351,4.0,10.0,61,0.00,,RA,0.00,VWS V14.01,2013-04-16 19:35:00,
2013-04-16 14:40:00,46.3,33.2,30.23,NNW,334,6.0,10.0,60,0.00,,RA,0.00,VWS V14.01,2013-04-16 19:40:00,
2013-04-16 14:45:00,46.2,33.1,30.22,NNE,20,8.0,10.0,60,0.00,,RA,0.00,VWS V14.01,2013-04-16 19:45:00,
2013-04-16 14:50:00,46.1,32.6,30.22,North,4,9.0,10.0,59,0.00,,RA,0.00,VWS V14.01,2013-04-16 19:50:00,
2013-04-16 14:55:00,46.5,31.7,30.22,NNE,28,4.0,10.0,56,0.00,,RA,0.00,VWS V14.01,2013-04-16 19:55:00,
2013-04-16 15:00:00,46.7,32.7,30.22,NNE,22,5.0,11.0,58,0.00,,RA,0.00,VWS V14.01,2013-04-16 20:00:00,
2013-04-16 15:05:00,46.4,32.4,30.23,North,5,4.0,9.0,58,0.00,,RA,0.00,VWS V14.01,2013-04-16 20:05:00,
2013-04-16 15:10:00,47.2,33.2,30.22,North,9,5.0,9.0,58,0.00,,RA,0.00,VWS V14.01,2013-04-16 20:10:00,
2013-04-16 15:15:00,47.6,33.1,30.22,NNE,32,3.0,9.0,57,0.00,,RA,0.00,VWS V14.01,2013-04-16 20:15:00,
2013-04-16 15:20:00,47.7,33.2,30.22,North,353,5.0,9.0,57,0.00,,RA,0.00,VWS V14.01,2013-04-16 20:20:00,
2013-04-16 15:25:00,47.4,32.5,30.22,NNE,17,7.0,9.0,56,0.00,,RA,0.00,VWS V14.01,2013-04-16 20:25:00,
2013-04-16 15:30:00,47.7,33.2,30.21,NNE,19,5.0,10.0,57,0.00,,RA,0.00,VWS V14.01,2013-04-16 20:30:00,
2013-04-16 15:35:00,47.5,32.6,30.21,NNE,27,6.0,10.0,56,0.00,,RA,0.00,VWS V14.01,2013-04-16 20:35:00,
2013-04-16 15:40:00,47.6,31.3,30.22,North,350,4.0,10.0,53,0.00,,RA,0.00,VWS V14.01,2013-04-16 20:40:00,
2013-04-16 15:45:00,47.9,33.0,30.22,North,357,6.0,10.0,56,0.00,,RA,0.00,VWS V14.01,2013-04-16 20:45:00,
2013-04-16 15:50:00,48.1,32.7,30.22,NE,40,3.0,10.0,55,0.00,,RA,0.00,VWS V14.01,2013-04-16 20:50:00,
2013-04-16 15:55:00,48.3,32.9,30.22,NNE,22,4.0,10.0,55,0.00,,RA,0.00,VWS V14.01,2013-04-16 20:55:00,
2013-04-16 16:00:00,47.9,31.6,30.21,NNE,12,6.0,10.0,53,0.00,,RA,0.00,VWS V14.01,2013-04-16 21:00:00,
2013-04-16 16:05:00,47.7,32.8,30.21,North,1,4.0,11.0,56,0.00,,RA,0.00,VWS V14.01,2013-04-16 21:05:00,
2013-04-16 16:10:00,47.7,33.7,30.21,NNE,20,5.0,11.0,58,0.00,,RA,0.00,VWS V14.01,2013-04-16 21:10:00,
2013-04-16 16:15:00,48.0,32.6,30.21,NNW,339,4.0,11.0,55,0.00,,RA,0.00,VWS V14.01,2013-04-16 21:15:00,
2013-04-16 16:20:00,48.2,34.6,30.21,NNE,23,6.0,11.0,59,0.00,,RA,0.00,VWS V14.01,2013-04-16 21:20:00,
2013-04-16 16:25:00,48.5,32.2,30.21,NNE,22,2.0,11.0,53,0.00,,RA,0.00,VWS V14.01,2013-04-16 21:25:00,
2013-04-16 16:30:00,48.2,32.3,30.21,North,11,2.0,11.0,54,0.00,,RA,0.00,VWS V14.01,2013-04-16 21:30:00,
2013-04-16 16:35:00,48.0,33.1,30.21,NNW,337,4.0,11.0,56,0.00,,RA,0.00,VWS V14.01,2013-04-16 21:35:00,
2013-04-16 16:40:00,48.2,32.8,30.21,North,350,5.0,11.0,55,0.00,,RA,0.00,VWS V14.01,2013-04-16 21:40:00,
2013-04-16 16:45:00,48.2,33.3,30.21,NNE,29,4.0,11.0,56,0.00,,RA,0.00,VWS V14.01,2013-04-16 21:45:00,
2013-04-16 16:50:00,48.4,33.4,30.21,North,1,5.0,11.0,56,0.00,,RA,0.00,VWS V14.01,2013-04-16 21:50:00,
2013-04-16 16:55:00,48.4,33.0,30.21,ENE,58,3.0,11.0,55,0.00,,RA,0.00,VWS V14.01,2013-04-16 21:55:00,
2013-04-16 17:00:00,48.7,32.3,30.21,NE,46,3.0,11.0,53,0.00,,RA,0.00,VWS V14.01,2013-04-16 22:00:00,
2013-04-16 17:05:00,48.7,32.3,30.21,NNE,29,3.0,7.0,53,0.00,,RA,0.00,VWS V14.01,2013-04-16 22:05:00,
2013-04-16 17:10:00,48.7,31.9,30.21,NE,37,4.0,7.0,52,0.00,,RA,0.00,VWS V14.01,2013-04-16 22:10:00,
2013-04-16 17:15:00,48.8,32.0,30.21,NE,36,4.0,7.0,52,0.00,,RA,0.00,VWS V14.01,2013-04-16 22:15:00,
2013-04-16 17:20:00,48.5,31.2,30.21,NNE,32,4.0,8.0,51,0.00,,RA,0.00,VWS V14.01,2013-04-16 22:20:00,
2013-04-16 17:25:00,48.7,30.9,30.21,North,360,3.0,8.0,50,0.00,,RA,0.00,VWS V14.01,2013-04-16 22:25:00,
2013-04-16 17:30:00,48.4,32.5,30.21,North,352,4.0,12.0,54,0.00,,RA,0.00,VWS V14.01,2013-04-16 22:30:00,
2013-04-16 17:35:00,48.4,33.0,30.21,NNE,23,4.0,7.0,55,0.00,,RA,0.00,VWS V14.01,2013-04-16 22:35:00,
2013-04-16 17:40:00,48.5,32.6,30.21,ENE,61,3.0,7.0,54,0.00,,RA,0.00,VWS V14.01,2013-04-16 22:40:00,
2013-04-16 17:45:00,48.4,31.6,30.21,NNE,21,3.0,8.0,52,0.00,,RA,0.00,VWS V14.01,2013-04-16 22:45:00,
2013-04-16 17:50:00,48.2,31.4,30.22,NNE,16,4.0,8.0,52,0.00,,RA,0.00,VWS V14.01,2013-04-16 22:50:00,
2013-04-16 17:55:00,48.2,31.9,30.21,NNE,25,5.0,8.0,53,0.00,,RA,0.00,VWS V14.01,2013-04-16 22:55:00,
2013-04-16 18:00:00,48.0,32.6,30.21,ENE,72,2.0,8.0,55,0.00,,RA,0.00,VWS V14.01,2013-04-16 23:00:00,
2013-04-16 18:05:00,47.9,33.0,30.21,NNE,21,4.0,8.0,56,0.00,,RA,0.00,VWS V14.01,2013-04-16 23:05:00,
2013-04-16 18:10:00,47.7,32.8,30.22,North,9,4.0,9.0,56,0.00,,RA,0.00,VWS V14.01,2013-04-16 23:10:00,
2013-04-16 18:15:00,47.7,33.7,30.22,NNE,15,1.0,9.0,58,0.00,,RA,0.00,VWS V14.01,2013-04-16 23:15:00,
2013-04-16 18:20:00,47.9,34.3,30.22,NE,42,3.0,9.0,59,0.00,,RA,0.00,VWS V14.01,2013-04-16 23:20:00,
2013-04-16 18:25:00,47.9,33.0,30.21,NE,47,2.0,9.0,56,0.00,,RA,0.00,VWS V14.01,2013-04-16 23:25:00,
2013-04-16 18:30:00,47.6,33.6,30.21,ENE,60,5.0,9.0,58,0.00,,RA,0.00,VWS V14.01,2013-04-16 23:30:00,
2013-04-16 18:35:00,47.3,33.3,30.21,NNE,29,2.0,7.0,58,0.00,,RA,0.00,VWS V14.01,2013-04-16 23:35:00,
2013-04-16 18:40:00,47.3,33.3,30.21,NE,40,4.0,7.0,58,0.00,,RA,0.00,VWS V14.01,2013-04-16 23:40:00,
2013-04-16 18:45:00,47.1,32.7,30.21,ENE,62,1.0,7.0,57,0.00,,RA,0.00,VWS V14.01,2013-04-16 23:45:00,
2013-04-16 18:50:00,46.6,33.5,30.21,ENE,58,2.0,7.0,60,0.00,,RA,0.00,VWS V14.01,2013-04-16 23:50:00,
2013-04-16 18:55:00,46.1,33.4,30.21,NNE,28,1.0,7.0,61,0.00,,RA,0.00,VWS V14.01,2013-04-16 23:55:00,
2013-04-16 19:00:00,46.1,32.2,30.21,NE,38,3.0,7.0,58,0.00,,RA,0.00,VWS V14.01,2013-04-17 00:00:00,
2013-04-16 19:05:00,46.1,32.6,30.21,NE,54,3.0,7.0,59,0.00,,RA,0.00,VWS V14.01,2013-04-17 00:05:00,
2013-04-16 19:10:00,46.1,32.6,30.21,NE,56,2.0,7.0,59,0.00,,RA,0.00,VWS V14.01,2013-04-17 00:10:00,
2013-04-16 19:15:00,46.1,32.6,30.21,NNE,26,1.0,7.0,59,0.00,,RA,0.00,VWS V14.01,2013-04-17 00:15:00,
2013-04-16 19:20:00,46.0,32.5,30.22,North,356,3.0,7.0,59,0.00,,RA,0.00,VWS V14.01,2013-04-17 00:20:00,
2013-04-16 19:25:00,45.8,33.1,30.22,NNE,21,2.0,7.0,61,0.00,,RA,0.00,VWS V14.01,2013-04-17 00:25:00,
2013-04-16 19:30:00,45.5,32.8,30.22,ENE,58,1.0,7.0,61,0.00,,RA,0.00,VWS V14.01,2013-04-17 00:30:00,
2013-04-16 19:35:00,45.1,32.9,30.22,NE,51,1.0,4.0,62,0.00,,RA,0.00,VWS V14.01,2013-04-17 00:35:00,
2013-04-16 19:40:00,44.8,32.6,30.22,NNE,29,2.0,4.0,62,0.00,,RA,0.00,VWS V14.01,2013-04-17 00:40:00,
2013-04-16 19:45:00,44.5,33.1,30.22,NE,39,1.0,4.0,64,0.00,,RA,0.00,VWS V14.01,2013-04-17 00:45:00,
2013-04-16 19:50:00,44.1,33.1,30.22,NE,41,1.0,4.0,65,0.00,,RA,0.00,VWS V14.01,2013-04-17 00:50:00,
2013-04-16 19:55:00,43.8,33.6,30.22,NNE,23,2.0,4.0,67,0.00,,RA,0.00,VWS V14.01,2013-04-17 00:55:00,
2013-04-16 20:00:00,43.6,33.8,30.22,NNE,32,2.0,4.0,68,0.00,,RA,0.00,VWS V14.01,2013-04-17 01:00:00,
2013-04-16 20:04:00,43.4,33.6,30.22,NNE,29,0.0,3.0,68,0.00,,RA,0.00,VWS V14.01,2013-04-17 01:04:00,
2013-04-16 20:09:00,43.2,33.7,30.23,NNE,28,0.0,3.0,69,0.00,,RA,0.00,VWS V14.01,2013-04-17 01:09:00,
2013-04-16 20:14:00,42.8,33.7,30.23,NNE,32,0.0,3.0,70,0.00,,RA,0.00,VWS V14.01,2013-04-17 01:14:00,
2013-04-16 20:19:00,42.5,33.8,30.23,NNE,22,3.0,3.0,71,0.00,,RA,0.00,VWS V14.01,2013-04-17 01:19:00,
2013-04-16 20:24:00,42.4,33.3,30.23,NE,36,1.0,3.0,70,0.00,,RA,0.00,VWS V14.01,2013-04-17 01:24:00,
2013-04-16 20:29:00,42.2,33.5,30.23,NNE,26,1.0,3.0,71,0.00,,RA,0.00,VWS V14.01,2013-04-17 01:29:00,
2013-04-16 20:30:00,42.2,33.5,30.24,NNE,25,2.0,3.0,71,0.00,,RA,0.00,VWS V14.01,2013-04-17 01:30:00,
2013-04-16 20:34:00,42.1,33.4,30.24,NNE,17,1.0,3.0,71,0.00,,RA,0.00,VWS V14.01,2013-04-17 01:34:00,
2013-04-16 20:39:00,42.0,33.3,30.24,NNE,27,1.0,3.0,71,0.00,,RA,0.00,VWS V14.01,2013-04-17 01:39:00,
2013-04-16 20:44:00,41.8,33.1,30.24,NNE,15,3.0,4.0,71,0.00,,RA,0.00,VWS V14.01,2013-04-17 01:44:00,
2013-04-16 20:49:00,41.7,33.3,30.24,NNE,19,1.0,4.0,72,0.00,,RA,0.00,VWS V14.01,2013-04-17 01:49:00,
2013-04-16 20:54:00,41.5,33.2,30.25,NNE,21,1.0,4.0,72,0.00,,RA,0.00,VWS V14.01,2013-04-17 01:54:00,
2013-04-16 20:59:00,41.3,33.3,30.25,NNE,27,2.0,4.0,73,0.00,,RA,0.00,VWS V14.01,2013-04-17 01:59:00,
2013-04-16 21:00:00,41.3,33.3,30.25,NNE,29,4.0,4.0,73,0.00,,RA,0.00,VWS V14.01,2013-04-17 02:00:00,
2013-04-16 21:04:00,41.3,33.3,30.24,NNE,27,4.0,4.0,73,0.00,,RA,0.00,VWS V14.01,2013-04-17 02:04:00,
2013-04-16 21:09:00,41.3,33.7,30.24,ENE,61,3.0,5.0,74,0.00,,RA,0.00,VWS V14.01,2013-04-17 02:09:00,
2013-04-16 21:14:00,41.4,33.4,30.25,NNE,18,4.0,5.0,73,0.00,,RA,0.00,VWS V14.01,2013-04-17 02:14:00,
2013-04-16 21:19:00,41.5,33.5,30.25,NE,43,3.0,5.0,73,0.00,,RA,0.00,VWS V14.01,2013-04-17 02:19:00,
2013-04-16 21:24:00,41.6,33.6,30.25,NE,46,1.0,5.0,73,0.00,,RA,0.00,VWS V14.01,2013-04-17 02:24:00,
2013-04-16 21:29:00,41.6,33.6,30.26,NE,51,0.0,5.0,73,0.00,,RA,0.00,VWS V14.01,2013-04-17 02:29:00,
2013-04-16 21:30:00,41.6,33.9,30.26,NE,49,1.0,5.0,74,0.00,,RA,0.00,VWS V14.01,2013-04-17 02:30:00,
2013-04-16 21:34:00,41.5,33.8,30.26,NNE,32,1.0,2.0,74,0.00,,RA,0.00,VWS V14.01,2013-04-17 02:34:00,
2013-04-16 21:39:00,41.5,33.8,30.27,NNE,32,1.0,2.0,74,0.00,,RA,0.00,VWS V14.01,2013-04-17 02:39:00,
2013-04-16 21:44:00,41.5,33.8,30.27,NNE,20,0.0,2.0,74,0.00,,RA,0.00,VWS V14.01,2013-04-17 02:44:00,
2013-04-16 21:49:00,41.4,33.8,30.27,NNE,26,0.0,2.0,74,0.00,,RA,0.00,VWS V14.01,2013-04-17 02:49:00,
2013-04-16 21:54:00,41.3,34.0,30.28,ENE,61,1.0,2.0,75,0.00,,RA,0.00,VWS V14.01,2013-04-17 02:54:00,
2013-04-16 21:59:00,41.3,34.0,30.27,NNE,20,2.0,4.0,75,0.00,,RA,0.00,VWS V14.01,2013-04-17 02:59:00,
2013-04-16 22:00:00,41.2,33.5,30.27,NE,37,3.0,4.0,74,0.00,,RA,0.00,VWS V14.01,2013-04-17 03:00:00,
2013-04-16 22:04:00,41.2,33.9,30.27,NNE,23,1.0,4.0,75,0.00,,RA,0.00,VWS V14.01,2013-04-17 03:04:00,
2013-04-16 22:09:00,41.2,33.9,30.27,NNE,29,0.0,4.0,75,0.00,,RA,0.00,VWS V14.01,2013-04-17 03:09:00,
2013-04-16 22:14:00,41.1,33.8,30.27,NNE,19,3.0,4.0,75,0.00,,RA,0.00,VWS V14.01,2013-04-17 03:14:00,
2013-04-16 22:19:00,41.1,34.1,30.26,NE,46,2.0,4.0,76,0.00,,RA,0.00,VWS V14.01,2013-04-17 03:19:00,
2013-04-16 22:24:00,41.0,34.0,30.27,NE,36,1.0,4.0,76,0.00,,RA,0.00,VWS V14.01,2013-04-17 03:24:00,
2013-04-16 22:29:00,40.9,34.3,30.27,NE,38,1.0,4.0,77,0.00,,RA,0.00,VWS V14.01,2013-04-17 03:29:00,
2013-04-16 22:30:00,40.8,34.2,30.27,NE,56,1.0,4.0,77,0.00,,RA,0.00,VWS V14.01,2013-04-17 03:30:00,
2013-04-16 22:34:00,40.8,34.2,30.26,NNE,23,1.0,4.0,77,0.00,,RA,0.00,VWS V14.01,2013-04-17 03:34:00,
2013-04-16 22:39:00,40.7,34.1,30.27,NE,38,0.0,4.0,77,0.00,,RA,0.00,VWS V14.01,2013-04-17 03:39:00,
2013-04-16 22:44:00,40.6,34.0,30.27,NE,34,1.0,4.0,77,0.00,,RA,0.00,VWS V14.01,2013-04-17 03:44:00,
2013-04-16 22:49:00,40.6,34.0,30.27,ENE,68,1.0,5.0,77,0.00,,RA,0.00,VWS V14.01,2013-04-17 03:49:00,
2013-04-16 22:54:00,40.5,33.9,30.27,NNE,30,1.0,5.0,77,0.00,,RA,0.00,VWS V14.01,2013-04-17 03:54:00,
2013-04-16 22:59:00,40.4,33.8,30.26,NE,49,2.0,5.0,77,0.00,,RA,0.00,VWS V14.01,2013-04-17 03:59:00,
2013-04-16 23:00:00,40.4,34.1,30.26,NE,46,1.0,5.0,78,0.00,,RA,0.00,VWS V14.01,2013-04-17 04:00:00,
2013-04-16 23:05:00,40.2,33.9,30.26,NNE,26,0.0,3.0,78,0.00,,RA,0.00,VWS V14.01,2013-04-17 04:05:00,
2013-04-16 23:10:00,40.0,34.0,30.26,NNE,13,1.0,3.0,79,0.00,,RA,0.00,VWS V14.01,2013-04-17 04:10:00,
2013-04-16 23:15:00,39.9,33.9,30.25,NE,51,1.0,3.0,79,0.00,,RA,0.00,VWS V14.01,2013-04-17 04:15:00,
2013-04-16 23:20:00,39.8,33.8,30.25,NE,53,3.0,4.0,79,0.00,,RA,0.00,VWS V14.01,2013-04-17 04:20:00,
2013-04-16 23:25:00,39.7,33.7,30.25,NNE,32,2.0,4.0,79,0.00,,RA,0.00,VWS V14.01,2013-04-17 04:25:00,
2013-04-16 23:30:00,39.7,33.7,30.26,NNE,29,1.0,4.0,79,0.00,,RA,0.00,VWS V14.01,2013-04-17 04:30:00,
2013-04-16 23:35:00,39.6,33.6,30.26,NE,56,1.0,3.0,79,0.00,,RA,0.00,VWS V14.01,2013-04-17 04:35:00,
2013-04-16 23:40:00,39.5,33.5,30.26,NE,52,2.0,4.0,79,0.00,,RA,0.00,VWS V14.01,2013-04-17 04:40:00,
2013-04-16 23:45:00,39.5,33.8,30.26,ENE,58,2.0,4.0,80,0.00,,RA,0.00,VWS V14.01,2013-04-17 04:45:00,
2013-04-16 23:50:00,39.6,33.6,30.26,ENE,73,1.0,4.0,79,0.00,,RA,0.00,VWS V14.01,2013-04-17 04:50:00,
2013-04-16 23:55:00,39.6,34.0,30.26,ENE,61,4.0,4.0,80,0.00,,RA,0.00,VWS V14.01,2013-04-17 04:55:00,